Location: Bocianicha
(51.5066°N, 19.2563°E)
Time: 14:36:41
(UTC+00:00)

Cosmos 1833 Rocket - Pass Details

Date: 15 June 2025
Orbit: 832 x 837 km, 71.0° (Epoch: 17 July)

Event Time Altitude Azimuth Distance (km) Brightness Sun altitude
Rises 01:15:36 0° 317° (NW) 3,394 6.0 -8.1°
Reaches altitude 10° 01:19:07 10° 295° (WNW) 2,452 5.0 -7.8°
Maximum altitude 01:22:06 15° 263° (W) 2,125 4.4 -7.5°
Drops below altitude 10° 01:25:04 10° 230° (SW) 2,441 4.5 -7.2°
Enters shadow 01:25:42 - 225° (SW) 2,577 4.6 -7.2°
